GORIZONT 33 [-]

Last updated on Jan. 22, 2020, 4:37 a.m. UTC

1 26372U 00029A   20021.51576130 -.00000077  00000-0  00000-0 0  9999
2 26372  12.6296  23.8882 0004112 332.3884 200.3634  1.00157078 71979
UTC
Height (km)
Latitude
Longitude
Inclination
Orbital Period
UTC large
Height (km)
Speed (km/s)
/
Latitude / Longitude
Inclination (degrees)
Orbital Period (minutes)
Azimuth
Elevation
Range (km)
Doppler Factor
iOS Compass Heading
iOS Angle

Next 30 passes for location: Hong Kong

Rise time Rise Azimuth (degrees) Set time Set Azimuth (degrees) Duration Max altitude (degrees)

No matching passes for this satellites